This demonstration page uses our WeatherBlox Daily Observations layout. Learn more.

Left ArrowRight Arrow

Hourly Observations for September 25, 2022

Temp ( °F °C ) Dew Point ( °F °C ) Humidity (%) Winds ( mph kmh ) Pressure ( in mb ) Visibility ( mi km ) Precip ( " mm )
12:53 am 00:53 Mostly Cloudy 81 27.2 75 23.9 82 82 NNW 5 7 29.98 1015 10 16 0.01 0.13
1:29 am 01:29 Cloudy 80 26.7 75 23.9 85 85 NE 5 7 29.97 1015 10 16 0.00 0.00
1:53 am 01:53 Cloudy 80 26.7 75 23.9 85 85 NNE 6 9 29.96 1015 10 16 0.00 0.00
2:21 am 02:21 Mostly Cloudy 81 27.2 75 23.9 82 82 WNW 6 9 29.95 1014 10 16 0.00 0.00
2:53 am 02:53 Mostly Cloudy 79 26.1 73 22.8 82 82 ENE 5 7 29.96 1015 10 16 0.00 0.00
3:08 am 03:08 Cloudy 79 26.1 73 22.8 82 82 E 8 13 29.96 1014 10 16 0.00 0.00
3:53 am 03:53 Cloudy 79 26.1 73 22.8 82 82 ENE 6 9 29.96 1015 10 16 0.00 0.00
4:10 am 04:10 Cloudy 78 25.6 72 22.2 82 82 E 10 17 29.96 1014 10 16 0.00 0.00
4:17 am 04:17 Cloudy 79 26.1 72 22.2 79 79 NE 6 9 29.96 1014 10 16 0.00 0.00
4:29 am 04:29 Cloudy 78 25.6 72 22.2 82 82 N 9 15 29.96 1014 10 16 0.00 0.00
4:53 am 04:53 Cloudy 77 25 72 22.2 84 84 NNE 9 15 29.96 1015 10 16 0.00 0.00
5:53 am 05:53 Cloudy 78 25.6 70 21.1 76 76 NE 6 9 29.97 1015 10 16 0.00 0.00
6:53 am 06:53 Mostly Sunny 79 26.1 71 21.7 77 77 NNW 7 11 29.99 1016 10 16 0.00 0.00
7:23 am 07:23 Mostly Cloudy 80 26.7 71 21.7 74 74 N 6 9 30.00 1016 10 16 0.00 0.00
7:53 am 07:53 undefined 81 27.2 71 21.7 72 72 NNW 7 11 30.00 1016 10 16 0.00 0.00
8:51 am 08:51 Mostly Cloudy 82 28 72 22 70 70 WNW 8 13 30.02 1016 10 16 0.00 0.00
8:53 am 08:53 Partly Cloudy 83 28.3 72 22.2 70 70 W 9 15 30.01 1016 10 16 0.00 0.00
9:12 am 09:12 Mostly Cloudy 83 28.3 73 22.8 72 72 WNW 10 17 30.02 1016 10 16 0.00 0.00
9:53 am 09:53 Sunny 83 28.3 72 22.2 70 70 W 10 17 30.01 1016 10 16 0.00 0.00
10:53 am 10:53 Sunny 84 28.9 73 22.8 70 70 WSW 8 13 30.00 1016 10 16 0.00 0.00
11:53 am 11:53 Partly Cloudy 86 30 74 23.3 67 67 WSW 12 19 29.99 1016 10 16 0.00 0.00
12:53 pm 12:53 Partly Cloudy 85 29.4 73 22.8 68 68 WSW 10 17 29.98 1015 10 16 0.00 0.00
1:53 pm 13:53 Sunny 86 30 73 22.8 65 65 WSW 12 19 29.96 1015 10 16 0.00 0.00
2:53 pm 14:53 Sunny 85 29.4 72 22.2 65 65 WSW 12 19 29.95 1014 10 16 0.00 0.00
3:53 pm 15:53 Sunny 85 29.4 72 22.2 65 65 WSW 14 22 29.95 1014 10 16 0.00 0.00
4:53 pm 16:53 Sunny 85 29.4 71 21.7 63 63 W 16 26 29.95 1014 10 16 0.00 0.00
5:53 pm 17:53 Partly Cloudy 83 28.3 72 22.2 70 70 W 14 22 29.96 1015 10 16 0.00 0.00
6:53 pm 18:53 Mostly Cloudy 82 27.8 72 22.2 72 72 W 18 30 29.98 1015 10 16 0.00 0.00
7:53 pm 19:53 Mostly Cloudy 82 27.8 73 22.8 74 74 W 20 31 30.00 1016 10 16 0.00 0.00
8:53 pm 20:53 Cloudy 81 27.2 73 22.8 77 77 SSW 12 19 30.02 1017 10 16 0.00 0.00
9:19 pm 21:19 Cloudy 77 25 68 20 74 74 E 14 22 30.04 1017 10 16 0.00 0.00
9:53 pm 21:53 Cloudy with Light Rain 76 24.4 71 21.7 85 85 ENE 7 11 30.04 1017 6 10 0.05 1.27
10:53 pm 22:53 Cloudy 79 26.1 72 22.2 79 79 Calm 30.04 1017 10 16 0.01 0.13
11:53 pm 23:53 Cloudy 78 25.6 73 22.8 85 85 E 3 6 30.03 1017 10 16 0.00 0.00

Powered by AerisWeather